This demonstration page uses our WeatherBlox Daily Observations layout. Learn more.

38.89511, -77.03637

Hourly Observations for July 29, 2017

Temp ( °F °C ) Dew Point ( °F °C ) Humidity (%) Winds ( mph kmh ) Pressure ( in mb ) Visibility ( mi km ) Precip ( " mm )
12:04 am 00:04 Cloudy with Rain 73 22.8 72 22.2 96 96 NE 17 28 29.65 1004 4 6.437376 0.02 0.508
12:11 am 00:11 Cloudy with Light Rain 73 22.8 72 22.2 96 96 NE 15 24 29.65 1004 5 8.04672 0.03 0.762
12:24 am 00:24 Cloudy with Heavy Rain 73 22.8 72 22.2 96 96 NE 10 17 29.68 1005 4 6.437376 0.06 1.524
12:29 am 00:29 Cloudy with Heavy Rain 72 22.2 72 22.2 100 100 NNE 14 22 29.68 1005 2.5 4.02336 0.1 2.54
12:37 am 00:37 Cloudy with Heavy Rain 72 22.2 72 22.2 100 100 NNE 17 28 29.68 1005 1.75 2.816352 0.23 5.842
12:43 am 00:43 Cloudy with Heavy Rain 72 22.2 72 22.2 100 100 NNE 15 24 29.68 1005 2 3.218688 0.29 7.366
12:52 am 00:52 Cloudy with Heavy Rain 72 22.2 71 21.7 97 97 NNE 22 35 29.65 1004 2 3.218688 0.41 10.414
1:00 am 01:00 Cloudy with Heavy Rain 71 21.7 71 21.7 100 100 NNE 21 33 29.68 1005 2 3.218688 0.08 2.032
1:08 am 01:08 Cloudy with Heavy Rain 71 21.7 71 21.7 100 100 NE 18 30 29.68 1005 2 3.218688 0.22 5.588
1:19 am 01:19 Cloudy with Heavy Rain 71 21.7 71 21.7 100 100 NE 15 24 29.68 1005 2.5 4.02336 0.36 9.144
1:31 am 01:31 Cloudy with Heavy Rain 71 21.7 70 21.1 96 96 NE 18 30 29.65 1004 3 4.828032 0.45 11.43
1:52 am 01:52 Cloudy with Light Rain 71 21.7 70 21.1 96 96 NNE 14 22 29.65 1004 8 12.874752 0.5 12.7
2:21 am 02:21 Cloudy 72 22.2 70 21.1 94 94 NE 16 26 29.65 1004 10 16.09344 0.01 0.254
2:52 am 02:52 Cloudy 71 21.7 70 21.1 96 96 NNE 16 26 29.65 1004 10 16.09344 0.01 0.254
3:18 am 03:18 Cloudy with Light Rain 71 21.7 69 20.6 94 94 NNE 16 26 29.68 1005 10 16.09344 0.001 0.001
3:45 am 03:45 Cloudy with Nearby Thunderstorms 71 21.7 69 20.6 94 94 NNE 14 22 29.65 1004 10 16.09344 0.001 0.001
3:52 am 03:52 Cloudy with Nearby Thunderstorms 71 21.7 69 20.6 94 94 NNE 14 22 29.65 1004 10 16.09344 0.001 0.001
4:06 am 04:06 Cloudy 71 21.7 69 20.6 94 94 NNE 10 17 29.65 1004 10 16.09344 0 0
4:24 am 04:24 Cloudy 71 21.7 70 21.1 96 96 N 10 17 29.65 1004 10 16.09344 0 0
4:50 am 04:50 Cloudy 72 22 70 21 94 94 NNE 10 17 29.65 1004 10 16.09344 0 0
4:52 am 04:52 Cloudy with Light Rain 72 22.2 70 21.1 94 94 NNE 10 17 29.65 1004 10 16.09344 0.001 0.001
5:47 am 05:47 Cloudy 72 22 68 20 88 88 N 14 22 29.68 1005 10 16.09344 0.001 0.001
5:52 am 05:52 Cloudy 72 22.2 69 20.6 91 91 N 13 20 29.65 1004 10 16.09344 0.001 0.001
6:14 am 06:14 Cloudy 72 22.2 68 20 87 87 N 13 20 29.68 1005 10 16.09344 0 0
6:40 am 06:40 Cloudy 72 22.2 68 20 87 87 N 12 19 29.68 1005 10 16.09344 0 0
6:52 am 06:52 Cloudy 72 22.2 68 20 87 87 N 12 19 29.68 1005 10 16.09344 0 0
7:52 am 07:52 Mostly Cloudy 72 22.2 68 20 87 87 NNE 16 26 29.71 1006 10 16.09344 0 0
7:55 am 07:55 Cloudy 72 22.2 68 20 87 87 N 16 26 29.71 1006 10 16.09344 0 0
8:39 am 08:39 Cloudy 71 21.7 66 18.9 84 84 N 17 28 29.74 1007 10 16.09344 0.001 0.001
8:46 am 08:46 Cloudy 72 22 66 19 83 83 NNE 17 28 29.74 1007 10 16.09344 0.001 0.001
8:52 am 08:52 Cloudy with Light Rain 70 21.1 66 18.9 87 87 NNE 16 26 29.71 1006 5 8.04672 0.001 0.001
9:33 am 09:33 Mostly Cloudy 72 22.2 66 18.9 82 82 NNE 18 30 29.74 1007 10 16.09344 0.01 0.254
9:52 am 09:52 Mostly Cloudy 74 23.3 66 18.9 76 76 NNE 21 33 29.74 1007 10 16.09344 0.01 0.254
10:08 am 10:08 Cloudy 73 22.8 65 18.3 76 76 N 20 31 29.74 1007 10 16.09344 0 0
10:24 am 10:24 Cloudy 74 23.3 66 18.9 76 76 N 18 30 29.74 1007 10 16.09344 0 0
10:52 am 10:52 Cloudy 73 22.8 65 18.3 76 76 N 23 37 29.74 1007 10 16.09344 0 0
10:59 am 10:59 Cloudy 73 22.8 64 17.8 74 74 N 24 39 29.77 1008 10 16.09344 0 0
11:12 am 11:12 Cloudy 73 22.8 63 17.2 71 71 N 23 37 29.77 1008 10 16.09344 0 0
11:52 am 11:52 Cloudy 73 22.8 63 17.2 71 71 N 21 33 29.77 1008 10 16.09344 0 0
12:52 pm 12:52 Cloudy with Light Rain 72 22.2 64 17.8 76 76 N 22 35 29.77 1008 10 16.09344 0.001 0.001
1:16 pm 13:16 Cloudy with Light Rain 69 20.6 64 17.8 84 84 N 21 33 29.8 1009 7 11.265408 0.001 0.001
1:19 pm 13:19 Cloudy with Rain 68 20 64 17.8 87 87 N 21 33 29.8 1009 4 6.437376 0.001 0.001
1:43 pm 13:43 Cloudy with Light Rain 70 21.1 64 17.8 82 82 N 18 30 29.8 1009 10 16.09344 0.02 0.508
1:52 pm 13:52 Cloudy with Light Rain 70 21.1 64 17.8 82 82 N 16 26 29.8 1009 10 16.09344 0.02 0.508
2:52 pm 14:52 Cloudy with Light Rain 74 23.3 65 18.3 74 74 NNE 16 26 29.8 1009 10 16.09344 0.001 0.001
3:52 pm 15:52 Cloudy with Light Rain 73 22.8 64 17.8 74 74 N 15 24 29.8 1009 10 16.09344 0.001 0.001
4:52 pm 16:52 Cloudy with Light Rain 75 23.9 65 18.3 71 71 N 12 19 29.8 1009 10 16.09344 0.001 0.001
5:52 pm 17:52 Cloudy 77 25 58 14.4 52 52 N 20 31 29.83 1010 10 16.09344 0.001 0.001
6:52 pm 18:52 Mostly Cloudy 75 23.9 59 15 58 58 N 16 26 29.83 1010 10 16.09344 0 0
7:52 pm 19:52 Mostly Cloudy 75 23.9 56 13.3 52 52 N 17 28 29.85 1011 10 16.09344 0 0
8:52 pm 20:52 Mostly Cloudy 74 23.3 55 12.8 52 52 N 16 26 29.85 1011 10 16.09344 0 0
9:52 pm 21:52 Mostly Cloudy 73 22.8 55 12.8 53 53 N 15 24 29.88 1012 10 16.09344 0 0
10:52 pm 22:52 Mostly Cloudy 72 22.2 54 12.2 53 53 N 15 24 29.91 1013 10 16.09344 0 0
11:52 pm 23:52 Mostly Cloudy 70 21.1 53 11.7 55 55 N 15 24 29.91 1013 10 16.09344 0 0

Powered by AerisWeather